ONEWEB-0231 (48782 NORAD) Tracking and Keplerian Element Data

This shows tracking and keplerian element data for the satellite.

Feedback or suggestion? Click here.




ElementValue
Catalog48782
NameONEWEB-0231
Epoch Orbit352
Epoch Day214.91667824
Epoch Year2021
RAAN254.7046
Inclination87.579
Eccentricity0.001024
Argument of Perigee51.435
Mean Anonmoly305.355
Mean Motion14.32576423
Decay Rate-0.01429775
L11 48782U 21045R 21214.91667824 -.01429775 00000-0 -56377+0 0 9998
L22 48782 87.5790 254.7046 0010240 51.4350 305.3550 14.32576423 3528

Live tracking and technical data element details for ONEWEB-0231 (NORAD 48782). ONEWEB-0231 can be tracked NOW for your location showing map with azimuth and elevation plus other details from your city location.

Track the satellite on the map from your city or location and see movement details for azimuth, elevation, latitude, longitude, range, height, and movement on the map or in text.







IsCatalogInMostPopularTable: catalog: 48782, numindb: 17
Update: records affected: 1



GetName: 48782 ONEWEB-0231

Hit Count: updated at: Wed, 04 Aug 2021 00:02:25 GMT